Regional Weather Roundup
Issued by NWS

Home | Current Version | Previous Version | Text Only | Print | Product List | Glossary Off
Versions: 1 2 3 4 5 6 7 8 9 10 11 12 13 14 15 16 17 18 19 20 21 22 23 24 25 26 27

000
ASUS45 KSLC 211110
RWRUT

UTAH REGIONAL WEATHER ROUNDUP
NATIONAL WEATHER SERVICE SALT LAKE CITY UT
400 AM MST TUE FEB 21 2017

UTZ001>011-023>025-211200-

NORTHERN UTAH

CITY           SKY/WX    TMP DP  RH WIND       PRES   REMARKS
BRIGHAM CITY     N/A     51  37  58 S21G29    30.00S
HILL AFB       CLEAR     49  37  65 S22G30    30.00S
LOGAN          CLOUDY    54  37  52 S21G29    29.97F
OGDEN          CLEAR     49  38  65 S23G32    29.99F
SALT LAKE CITY PTCLDY    52  38  58 S23G46    30.02S
TOOELE VALLEY  CLEAR     54  37  54 S31G46    29.99F
WENDOVER       CLEAR     52  34  50 SW31      29.97S
HEBER CITY     CLOUDY    46  34  61 S3        30.10S
WEST JORDAN    CLEAR     52  46  77 SE31G40   30.04R

$$

UTZ011>015-024>027-211200-

CENTRAL/NORTHEAST UTAH

CITY           SKY/WX    TMP DP  RH WIND       PRES   REMARKS
PROVO AIRPORT  MOCLDY    51  37  58 SE6       30.13S
MOAB/CANYONLAN CLEAR     43  37  79 N3        30.22F
DELTA          PTCLDY    46  39  76 S24       30.16R
PRICE          CLOUDY    40  36  86 E8        30.22F WCI  34
ROOSEVELT      PTCLDY    32  30  93 W3        30.20S
VERNAL         CLEAR     31  28  89 VRB3      30.17S

$$

UTZ013>016-019>022-027-211200-

SOUTHERN UTAH

CITY           SKY/WX    TMP DP  RH WIND       PRES   REMARKS
BRYCE CANYON   FOG       36  34  92 S13       30.32S VSB 1/4 WCI  27
CEDAR CITY     CLEAR     42  38  85 SW16      30.24S
MILFORD        CLOUDY    45  40  82 S16       30.22S
ST GEORGE      CLOUDY    50  43  77 SE7       30.28S
HANKSVILLE     CLEAR     36  34  93 NE3       30.24S
BLANDING       CLOUDY    42  35  75 SE3       30.41S

$$

REGIONAL REPORTS     COLORADO/ARIZONA

CITY           SKY/WX    TMP DP  RH WIND       PRES   REMARKS
CRAIG, CO      CLOUDY    42  31  64 W7        30.19R
GRAND JUNCTION CLOUDY    43  36  76 E8        30.25S
RIFLE, CO      CLOUDY    39  34  82 N5        30.26R
MONTROSE, CO   CLOUDY    43  33  68 S3        30.32R
CORTEZ, CO     CLOUDY    40  37  89 CALM      30.36S
COLORADO CITY  CLOUDY    45  43  93 SE6       30.34F
PAGE, AZ       MOCLDY    45  36  70 S5        30.29F
GRAND CANYON   MOCLDY    32  32 100 CALM      30.39S
KINGMAN, AZ    CLEAR     43  39  86 E9        30.32F
FLAGSTAFF, AZ  CLEAR     33  32  96 SW5       30.39F WCI  29

$$

REGIONAL REPORTS    NEVADA/IDAHO/WYOMING

CITY           SKY/WX    TMP DP  RH WIND       PRES   REMARKS
LAS VEGAS, NV  PTCLDY    59  45  59 SE9       30.19S
ELY, NY        PTCLDY    41  34  76 S17G25    30.09R
ELKO, NV       CLOUDY    43  33  68 CALM      29.94S
POCATELLO, ID  CLOUDY    47  38  71 S24G33    29.88F
BURLEY, ID     CLOUDY    48  36  63 SW18      29.87S
FORT BRIDGER,  PTSUNNY   40  32  71 SW13      30.08R WCI  33
EVANSTON, WY   CLEAR     38  31  76 SW29      30.03S WCI  26
ROCK SPRINGS,  CLEAR     38  29  70 SW16      30.04S WCI  29
KEMMERER, WY     N/A     37  32  81 SW21G29   30.02F WCI  27

$$




USA.gov is the U.S. government's official web portal to all federal, state and local government web resources and services.